Location: Baumgarten
(49.0970°N, 12.7493°E)
Time: 17:25:45
(UTC+00:00)

Cosmos 2237 Rocket - Pass Details

Date: 05 July 2020
Orbit: 835 x 850 km, 71.0° (Epoch: 11 August)

Event Time Altitude Azimuth Distance (km) Brightness Sun altitude
Exits shadow 22:14:32 16° 211° (SSW) 2,081 3.8 -17.0°
Maximum altitude 22:19:11 82° 299° (WNW) 865 2.3 -17.2°
Drops below altitude 10° 22:24:55 10° 27° (NNE) 2,488 5.4 -17.4°
Sets 22:27:23 0° 29° (NNE) 3,427 6.2 -17.5°
